Visibility
15.0 15.0 15.0 15.0 15.0 15.0 15.0 15.0 15.0 15.0 15.0 15.0 15.0 15.0 15.0 15.0 15.0 15.0 15.0 15.0 15.0 15.0 15.0 15.0 15.0 15.0 15.0 15.0 15.0 15.0 15.0 15.0 15.0 15.0 15.0 15.0 15.0 15.0 15.0 15.0 15.0 15.0 15.0 15.0
15.0 15.0 15.0 15.0 15.0 15.0 15.0 15.0 15.0 15.0 15.0 15.0 15.0 15.0 15.0 15.0 15.0 15.0 15.0 15.0 15.0 15.0 15.0 15.0 15.0 15.0 15.0 15.0 15.0 15.0 15.0 15.0 15.0 15.0 15.0 15.0 15.0 15.0 15.0 15.0 15.0 15.0 15.0 15.0
15.0 15.0 15.0 15.0 15.0 13.3 15.0 15.0 15.0 15.0 15.0 15.0 15.0 15.0 15.0 15.0 15.0 15.0 15.0 15.0 15.0 15.0 15.0 15.0 15.0 15.0 15.0 15.0 15.0 15.0 15.0 15.0 15.0 15.0 15.0 15.0 15.0 15.0 15.0 15.0 15.0 15.0 15.0 15.0
14.1 11.9 15.0 12.5 15.0 15.0 15.0 15.0 15.0 15.0 15.0 15.0 15.0 15.0 15.0 15.0 15.0 15.0 15.0 15.0 15.0 15.0 15.0 15.0 15.0 15.0 15.0 15.0 15.0 15.0 15.0 15.0 15.0 15.0 15.0 15.0 15.0 15.0 15.0 15.0 15.0 15.0 15.0 15.0
13.6 14.9 13.2 9.3 14.1 15.0 15.0 3.3 4.7 15.0 15.0 15.0 15.0 15.0 15.0 15.0 15.0 15.0 15.0 15.0 15.0 15.0 15.0 15.0 15.0 15.0 15.0 15.0 15.0 15.0 15.0 15.0 15.0 15.0 15.0 15.0 15.0 15.0 15.0 15.0 15.0 15.0 15.0 15.0
14.7 14.3 8.0 8.3 14.2 13.1 12.0 15.0 7.6 14.6 15.0 15.0 15.0 15.0 15.0 15.0 15.0 15.0 15.0 15.0 15.0 15.0 15.0 15.0 15.0 15.0 15.0 15.0 15.0 15.0 15.0 15.0 15.0 15.0 15.0 15.0 15.0 15.0 15.0 15.0 15.0 15.0 15.0 15.0
15.0 15.0 15.0 9.3 10.6 13.6 12.7 7.7 10.1 4.4 14.4 15.0 15.0 15.0 15.0 15.0 15.0 15.0 15.0 15.0 15.0 15.0 15.0 15.0 15.0 15.0 15.0 15.0 15.0 15.0 15.0 15.0 15.0 15.0 15.0 15.0 15.0 15.0 15.0 15.0 15.0 15.0 15.0 15.0
11.5 13.2 15.0 14.9 7.4 14.7 6.1 9.2 15.0 0.2 0.6 15.0 15.0 15.0 15.0 15.0 15.0 15.0 15.0 15.0 15.0 15.0 15.0 15.0 15.0 15.0 15.0 15.0 15.0 15.0 15.0 15.0 15.0 15.0 15.0 15.0 15.0 15.0 15.0 15.0 15.0 15.0 15.0 15.0
9.7 10.6 14.9 10.6 6.1 7.2 13.7 11.7 11.0 4.0 1.3 14.9 15.0 15.0 15.0 15.0 15.0 15.0 15.0 15.0 15.0 15.0 15.0 15.0 15.0 15.0 15.0 15.0 15.0 15.0 15.0 15.0 15.0 15.0 15.0 15.0 15.0 15.0 15.0 15.0 15.0 15.0 15.0 15.0
11.0 14.4 11.1 9.4 7.3 8.0 6.8 10.5 7.6 7.4 0.0 15.0 15.0 15.0 15.0 15.0 15.0 15.0 15.0 15.0 15.0 15.0 15.0 15.0 15.0 15.0 15.0 15.0 15.0 15.0 15.0 15.0 15.0 15.0 15.0 15.0 15.0 15.0 15.0 15.0 15.0 15.0 15.0 15.0
10.5 15.0 9.3 8.9 9.5 12.1 13.1 6.7 11.6 7.3 0.1 15.0 15.0 15.0 15.0 15.0 15.0 10.4 15.0 15.0 15.0 15.0 15.0 8.0 15.0 15.0 15.0 15.0 15.0 15.0 15.0 15.0 15.0 15.0 15.0 15.0 15.0 15.0 15.0 15.0 15.0 15.0 15.0 15.0
8.8 12.3 12.8 14.5 8.9 15.0 8.5 14.4 7.1 6.2 0.9 5.7 14.7 14.8 15.0 15.0 15.0 15.0 15.0 15.0 15.0 15.0 15.0 13.8 8.9 15.0 3.1 15.0 15.0 15.0 15.0 15.0 15.0 15.0 15.0 15.0 15.0 15.0 15.0 15.0 15.0 15.0 15.0 15.0
9.2 11.3 13.9 15.0 15.0 15.0 13.2 15.0 11.2 7.9 9.3 13.2 15.0 15.0 15.0 15.0 15.0 15.0 15.0 15.0 15.0 15.0 15.0 15.0 8.3 15.0 11.4 10.1 14.6 15.0 15.0 15.0 15.0 15.0 15.0 15.0 15.0 15.0 15.0 15.0 15.0 15.0 15.0 15.0
15.0 15.0 15.0 14.6 15.0 15.0 15.0 9.3 8.5 10.8 6.6 7.2 15.0 15.0 15.0 15.0 15.0 15.0 15.0 15.0 15.0 13.4 15.0 10.2 15.0 15.0 13.6 6.5 9.8 9.3 15.0 15.0 15.0 15.0 15.0 15.0 15.0 15.0 9.9 15.0 15.0 15.0 15.0 15.0
15.0 15.0 15.0 15.0 15.0 13.9 13.7 9.6 12.4 10.3 1.9 12.5 15.0 15.0 15.0 15.0 15.0 15.0 15.0 15.0 15.0 15.0 14.9 0.5 8.4 15.0 15.0 15.0 12.4 6.7 8.8 4.7 15.0 15.0 15.0 15.0 15.0 15.0 15.0 15.0 15.0 15.0 15.0 15.0
15.0 15.0 15.0 15.0 15.0 15.0 11.5 14.8 15.0 15.0 7.7 15.0 15.0 15.0 15.0 15.0 15.0 15.0 15.0 15.0 15.0 15.0 15.0 15.0 8.3 15.0 14.0 5.1 0.5 14.9 14.9 11.6 15.0 15.0 15.0 15.0 15.0 15.0 15.0 15.0 15.0 14.9 15.0 15.0
10.6 13.2 14.6 14.9 15.0 14.4 13.9 10.8 8.7 15.0 15.0 8.9 7.2 15.0 15.0 15.0 15.0 15.0 15.0 15.0 15.0 15.0 15.0 15.0 3.7 12.4 15.0 15.0 0.3 15.0 15.0 15.0 15.0 15.0 14.4 15.0 15.0 4.5 13.2 15.0 15.0 15.0 15.0 15.0
15.0 15.0 15.0 15.0 15.0 15.0 15.0 15.0 15.0 15.0 13.9 14.1 3.2 13.1 8.5 15.0 15.0 15.0 15.0 15.0 15.0 15.0 15.0 13.7 3.0 4.7 15.0 4.8 13.4 15.0 15.0 15.0 15.0 15.0 15.0 15.0 15.0 8.6 5.9 11.6 15.0 15.0 15.0 15.0
15.0 15.0 15.0 15.0 15.0 15.0 7.6 15.0 6.6 15.0 15.0 0.0 5.7 3.4 1.7 15.0 15.0 15.0 15.0 15.0 15.0 13.6 13.9 2.6 12.7 14.6 0.1 0.5 14.9 15.0 15.0 15.0 7.8 3.7 4.4 13.5 15.0 15.0 15.0 15.0 15.0 15.0 15.0 15.0
15.0 15.0 15.0 6.3 15.0 15.0 14.8 0.8 15.0 14.9 14.6 15.0 15.0 15.0 14.6 15.0 15.0 15.0 15.0 15.0 15.0 14.7 4.2 5.7 14.9 0.6 7.6 15.0 15.0 15.0 15.0 15.0 15.0 15.0 14.9 6.6 2.5 12.7 3.8 15.0 14.6 15.0 15.0 15.0
15.0 15.0 15.0 15.0 15.0 13.8 15.0 5.3 7.9 10.4 0.9 15.0 15.0 15.0 15.0 15.0 5.8 5.1 15.0 15.0 15.0 7.2 7.6 4.8 8.4 3.7 3.6 4.9 6.0 14.6 15.0 15.0 12.9 7.9 10.1 14.3 12.9 15.0 15.0 15.0 15.0 15.0 15.0 15.0
15.0 15.0 15.0 15.0 13.8 15.0 15.0 7.1 5.1 6.0 8.5 5.4 10.7 14.3 15.0 15.0 15.0 9.5 15.0 15.0 15.0 3.7 10.2 6.6 0.1 4.9 4.2 2.9 4.9 7.6 6.4 7.6 8.1 10.1 13.8 15.0 15.0 15.0 15.0 15.0 15.0 15.0 15.0 15.0
15.0 15.0 15.0 14.2 9.8 0.0 0.0 0.9 2.9 2.7 13.1 4.8 14.2 8.8 15.0 15.0 15.0 15.0 15.0 15.0 13.9 14.8 6.7 4.0 1.9 3.1 15.0 10.3 7.1 13.5 15.0 15.0 15.0 15.0 15.0 15.0 15.0 15.0 15.0 15.0 15.0 15.0 15.0 15.0
15.0 15.0 0.0 0.0 0.0 0.1 14.9 7.1 15.0 9.4 15.0 8.3 15.0 7.2 15.0 15.0 15.0 15.0 4.2 15.0 15.0 5.2 11.7 0.2 12.5 6.0 6.0 13.6 15.0 15.0 15.0 15.0 15.0 15.0 15.0 15.0 15.0 15.0 15.0 15.0 15.0 15.0 15.0 15.0
14.1 0.3 0.0 0.0 5.7 11.9 15.0 11.9 13.2 15.0 15.0 15.0 9.3 15.0 13.5 15.0 15.0 15.0 9.4 10.3 5.8 0.6 0.3 4.3 5.6 9.1 6.6 4.5 12.3 15.0 13.4 15.0 15.0 15.0 15.0 15.0 15.0 15.0 15.0 15.0 15.0 15.0 15.0 15.0
9.5 12.1 9.9 7.8 11.6 14.5 15.0 15.0 15.0 15.0 15.0 15.0 15.0 15.0 15.0 10.0 12.6 15.0 11.0 3.8 0.0 0.1 6.5 7.8 4.6 4.5 6.6 5.8 6.0 11.8 15.0 15.0 15.0 15.0 15.0 15.0 15.0 15.0 15.0 15.0 15.0 15.0 11.4 6.3
15.0 9.5 15.0 14.9 15.0 15.0 15.0 15.0 15.0 15.0 15.0 15.0 15.0 15.0 13.7 14.6 8.5 0.5 14.2 0.1 1.5 1.3 3.6 4.5 14.7 15.0 4.5 4.8 14.2 7.8 6.6 5.5 15.0 15.0 15.0 15.0 15.0 15.0 15.0 15.0 15.0 15.0 15.0 15.0